STARLINK-11391, 62889

Orbit data source: Space-Track

STARLINK-11391, 62889 is a payload satellite owned by SpaceX/Seattle (US) in LEO that was launched on Tue, 04 Feb 2025 UTC via an FALCON 9 launch vehicle from the Air Force Eastern Test Range (AFETR). Payload-class satellites include a variety of spacecraft equipped with specific instruments for various scientific and technological missions. These include communications satellites like Starlink; space stations such as the ISS; scientific satellites like the Hubble; Earth observation satellites from companies like Planet Labs, Umbra, and HawkEye 360; GPS; miniature CubeSats for education and research; and military/defense satellites.

Loading next visibility...
Identifier
62889, 2025-024L
Orbit
LEO
Country
Flag of USUS
Related business
Manufacturer
SpaceX/Seattle
Mission
Operational Commercial Communications
Bus & Motor
STARLINK V2MD, Unknown motor
Mass
960 kg wet, ~910 kg dry
Launch date (UTC)
2025-02-04 (10 months ago)
Launch vehicle
FALCON 9
Launch site
Air Force Eastern Test Range (AFETR)
Object type
Payload
Rocket body
Debris
Shape & HBR
Box + 2 Pan, 18.1 m
Radar Cross Section
36.964 m², Large (>1 m²)

Expand to show TLE details & history
Last TLE update: 15 hours ago

TLE from 15 hours ago
0 STARLINK-11391
1 62889U 25024L   25348.96717792  .00264366  00000-0  19880-2 0  9991
2 62889  42.9988 331.9830 0001662 243.5952 116.4746 15.70970521 50143
Epoch: 2025-12-14T23:12Z
TLE epoch observation values (Epoch: 2025-12-14T23:12:44.172Z)
Latitude
0.00005°
Longitude
-100.0735°
Altitude
356.392 km
Speed
7.697 km/s
True Right ascension
22h 07m 55s
True Declination
0° 00' 00"
Sunlit
Object was in daylight at epoch
Visualization orbit readout
Latitude
Unknown
Longitude
Unknown
Altitude
Unknown
Speed
Unknown
Apparent Right ascension
Unknown
Apparent Declination
Unknown
Sunlit
N/A
Visualization observer readout
Local Sidereal Time
12:43:57
Azimuth
Unknown
Elevation
Unknown
Doppler factor
Unknown
Orbital elements
Apogee altitude
359.223 km
Perigee altitude
356.984 km
Semi-major axis
6,736.241 km
Eccentricity
0.00017
Inclination
42.9988°
RAAN
331.983°
Arg. of periapsis
243.5952°
True anomaly
116.49165°
Mean anomaly
116.4746°
Eccentric anomaly
116.48312°
Mean motion
3.9257 °/min
Orbital period
91.7 mins
BSTAR
0.001988
Loading maneuver chart data...
Computing Atmospheric mass density...
Loading historical data...
Loading historical data...
Loading historical data...
Loading historical data...
Loading historical data...
Loading historical data...
Loading historical data...

Documentation

Showing up to 5 results
|